Time,TemperatureF,DewpointF,PressureIn,WindDirection,WindDirectionDegrees,WindSpeedMPH,WindSpeedGustMPH,Humidity,HourlyPrecipIn,Conditions,Clouds,dailyrainin,SoftwareType,DateUTC
2013-07-25 00:01:00,77.2,67.9,29.41,North,0,0.0,0.0,73,0.00,,,0.00,VWS V14.01,2013-07-25 04:01:00,
2013-07-25 00:02:00,77.2,67.9,29.41,North,0,0.0,0.0,73,0.00,,,0.00,VWS V14.01,2013-07-25 04:02:00,
2013-07-25 00:03:00,77.2,67.5,29.41,North,0,0.0,0.0,72,0.00,,,0.00,VWS V14.01,2013-07-25 04:03:00,
2013-07-25 00:08:00,77.0,67.3,29.41,NNW,338,0.0,0.0,72,0.00,,,0.00,VWS V14.01,2013-07-25 04:08:00,
2013-07-25 00:13:00,77.0,67.3,29.44,North,0,0.0,0.0,72,0.00,,,0.00,VWS V14.01,2013-07-25 04:13:00,
2013-07-25 00:18:00,77.0,67.3,29.44,NNW,338,0.0,0.0,72,0.00,,,0.00,VWS V14.01,2013-07-25 04:18:00,
2013-07-25 00:23:00,76.8,67.1,29.44,NNW,338,0.0,0.0,72,0.00,,,0.00,VWS V14.01,2013-07-25 04:23:00,
2013-07-25 00:29:00,76.8,67.1,29.44,NNW,338,0.0,0.0,72,0.00,,,0.00,VWS V14.01,2013-07-25 04:29:00,
2013-07-25 00:34:00,76.6,67.3,29.44,NNW,338,0.0,0.0,73,0.00,,,0.00,VWS V14.01,2013-07-25 04:34:00,
2013-07-25 00:39:00,76.6,67.3,29.44,NNW,338,0.0,0.0,73,0.00,,,0.00,VWS V14.01,2013-07-25 04:39:00,
2013-07-25 00:44:00,76.5,67.2,29.44,NNW,338,0.0,0.0,73,0.00,,,0.00,VWS V14.01,2013-07-25 04:44:00,
2013-07-25 00:49:00,76.5,67.2,29.44,NNW,338,0.0,0.0,73,0.00,,,0.00,VWS V14.01,2013-07-25 04:49:00,
2013-07-25 00:54:00,76.5,67.2,29.44,NNW,338,0.0,0.0,73,0.00,,,0.00,VWS V14.01,2013-07-25 04:54:00,
2013-07-25 01:00:00,76.5,67.6,29.44,NNW,338,0.0,0.0,74,0.00,,,0.00,VWS V14.01,2013-07-25 05:00:00,
2013-07-25 01:05:00,76.3,67.4,29.44,NNW,338,0.0,0.0,74,0.00,,,0.00,VWS V14.01,2013-07-25 05:05:00,
2013-07-25 01:10:00,76.1,67.2,29.44,NNW,338,0.0,0.0,74,0.00,,,0.00,VWS V14.01,2013-07-25 05:10:00,
2013-07-25 01:15:00,76.1,67.6,29.44,NNW,338,0.0,0.0,75,0.00,,,0.00,VWS V14.01,2013-07-25 05:15:00,
2013-07-25 01:20:00,76.1,67.6,29.44,NNW,338,0.0,0.0,75,0.00,,,0.00,VWS V14.01,2013-07-25 05:20:00,
2013-07-25 01:25:00,75.7,67.3,29.44,NNW,338,0.0,0.0,75,0.00,,,0.00,VWS V14.01,2013-07-25 05:25:00,
2013-07-25 01:30:00,75.7,67.3,29.44,NNW,338,0.0,0.0,75,0.00,,,0.00,VWS V14.01,2013-07-25 05:30:00,
2013-07-25 01:35:00,75.6,67.1,29.44,NNW,338,0.0,0.0,75,0.00,,,0.00,VWS V14.01,2013-07-25 05:35:00,
2013-07-25 01:41:00,75.7,67.3,29.41,NNW,338,0.0,0.0,75,0.00,,,0.00,VWS V14.01,2013-07-25 05:41:00,
2013-07-25 01:46:00,75.7,67.3,29.41,NNW,338,0.0,0.0,75,0.00,,,0.00,VWS V14.01,2013-07-25 05:46:00,
2013-07-25 01:51:00,75.6,67.1,29.41,NNW,338,0.0,0.0,75,0.00,,,0.00,VWS V14.01,2013-07-25 05:51:00,
2013-07-25 01:56:00,75.7,67.3,29.41,NNW,338,0.0,0.0,75,0.00,,,0.00,VWS V14.01,2013-07-25 05:56:00,
2013-07-25 02:01:00,75.6,67.1,29.41,NNW,338,0.0,0.0,75,0.00,,,0.00,VWS V14.01,2013-07-25 06:01:00,
2013-07-25 02:06:00,75.6,67.1,29.41,NNW,338,0.0,0.0,75,0.00,,,0.00,VWS V14.01,2013-07-25 06:06:00,
2013-07-25 02:11:00,75.6,67.5,29.41,NNW,338,0.0,0.0,76,0.00,,,0.00,VWS V14.01,2013-07-25 06:11:00,
2013-07-25 02:16:00,75.7,67.6,29.41,NNW,338,0.0,0.0,76,0.00,,,0.00,VWS V14.01,2013-07-25 06:16:00,
2013-07-25 02:21:00,75.7,67.6,29.41,NNW,338,0.0,0.0,76,0.00,,,0.00,VWS V14.01,2013-07-25 06:21:00,
2013-07-25 02:26:00,75.6,67.5,29.41,NNW,338,0.0,0.0,76,0.00,,,0.00,VWS V14.01,2013-07-25 06:26:00,
2013-07-25 02:31:00,75.6,67.5,29.41,NNW,338,0.0,0.0,76,0.00,,,0.00,VWS V14.01,2013-07-25 06:31:00,
2013-07-25 02:36:00,75.0,66.9,29.41,NNW,338,0.0,0.0,76,0.00,,,0.00,VWS V14.01,2013-07-25 06:36:00,
2013-07-25 02:42:00,74.1,65.7,29.41,NNW,338,0.0,0.0,75,0.00,,,0.00,VWS V14.01,2013-07-25 06:42:00,
2013-07-25 02:47:00,74.1,66.1,29.41,NNW,338,0.0,0.0,76,0.00,,,0.00,VWS V14.01,2013-07-25 06:47:00,
2013-07-25 02:52:00,73.8,65.7,29.41,NNW,338,0.0,0.0,76,0.00,,,0.00,VWS V14.01,2013-07-25 06:52:00,
2013-07-25 02:57:00,73.4,65.8,29.41,NNW,338,0.0,0.0,77,0.00,,,0.00,VWS V14.01,2013-07-25 06:57:00,
2013-07-25 03:02:00,73.6,65.9,29.41,NNW,338,0.0,0.0,77,0.05,,,0.05,VWS V14.01,2013-07-25 07:02:00,
2013-07-25 03:07:00,73.0,65.8,29.41,NW,315,0.0,0.0,78,0.05,,,0.05,VWS V14.01,2013-07-25 07:07:00,
2013-07-25 03:12:00,73.0,65.8,29.41,NNW,338,0.0,0.0,78,0.08,,,0.08,VWS V14.01,2013-07-25 07:12:00,
2013-07-25 03:17:00,73.0,66.2,29.41,West,270,0.0,0.0,79,0.08,,,0.08,VWS V14.01,2013-07-25 07:17:00,
2013-07-25 03:23:00,73.0,66.2,29.41,West,270,0.0,0.0,79,0.08,,,0.08,VWS V14.01,2013-07-25 07:23:00,
2013-07-25 03:28:00,73.0,66.2,29.38,WNW,292,0.0,0.0,79,0.08,,,0.08,VWS V14.01,2013-07-25 07:28:00,
2013-07-25 03:33:00,72.5,65.6,29.38,NNW,338,0.0,0.0,79,0.08,,,0.08,VWS V14.01,2013-07-25 07:33:00,
2013-07-25 03:38:00,72.7,66.2,29.38,WNW,292,0.0,0.0,80,0.13,,,0.13,VWS V14.01,2013-07-25 07:38:00,
2013-07-25 03:43:00,72.9,66.3,29.38,West,270,0.0,0.0,80,0.13,,,0.13,VWS V14.01,2013-07-25 07:43:00,
2013-07-25 03:48:00,72.9,66.3,29.38,West,270,0.0,0.0,80,0.13,,,0.13,VWS V14.01,2013-07-25 07:48:00,
2013-07-25 03:53:00,72.9,66.3,29.38,West,270,0.0,0.0,80,0.13,,,0.13,VWS V14.01,2013-07-25 07:53:00,
2013-07-25 03:58:00,72.7,66.5,29.38,West,270,0.0,0.0,81,0.08,,,0.13,VWS V14.01,2013-07-25 07:58:00,
2013-07-25 04:03:00,72.3,65.8,29.38,WSW,248,0.0,0.0,80,0.08,,,0.13,VWS V14.01,2013-07-25 08:03:00,
2013-07-25 04:09:00,72.1,66.0,29.38,WNW,292,0.0,0.0,81,0.08,,,0.13,VWS V14.01,2013-07-25 08:09:00,
2013-07-25 04:14:00,72.0,65.5,29.38,West,270,0.0,0.0,80,0.05,,,0.13,VWS V14.01,2013-07-25 08:14:00,
2013-07-25 04:19:00,72.0,65.8,29.38,WSW,248,0.0,0.0,81,0.05,,,0.13,VWS V14.01,2013-07-25 08:19:00,
2013-07-25 04:24:00,71.8,65.6,29.38,West,270,0.0,0.0,81,0.05,,,0.13,VWS V14.01,2013-07-25 08:24:00,
2013-07-25 04:29:00,71.8,65.6,29.41,WNW,292,0.0,0.0,81,0.05,,,0.13,VWS V14.01,2013-07-25 08:29:00,
2013-07-25 04:34:00,71.8,65.6,29.41,WNW,292,0.0,0.0,81,0.05,,,0.13,VWS V14.01,2013-07-25 08:34:00,
2013-07-25 04:39:00,71.6,65.5,29.41,WSW,248,0.0,0.0,81,0.00,,,0.13,VWS V14.01,2013-07-25 08:39:00,
2013-07-25 04:44:00,71.8,65.6,29.41,West,270,0.0,0.0,81,0.00,,,0.13,VWS V14.01,2013-07-25 08:44:00,
2013-07-25 04:50:00,71.6,65.5,29.41,West,270,0.0,0.0,81,0.00,,,0.13,VWS V14.01,2013-07-25 08:50:00,
2013-07-25 04:55:00,71.6,65.5,29.41,West,270,0.0,0.0,81,0.00,,,0.13,VWS V14.01,2013-07-25 08:55:00,
2013-07-25 05:00:00,71.4,65.6,29.41,WNW,292,0.0,0.0,82,0.00,,,0.13,VWS V14.01,2013-07-25 09:00:00,
2013-07-25 05:05:00,71.2,65.5,29.41,West,270,0.0,0.0,82,0.00,,,0.13,VWS V14.01,2013-07-25 09:05:00,
2013-07-25 05:10:00,71.2,65.5,29.41,WSW,248,0.0,0.0,82,0.00,,,0.13,VWS V14.01,2013-07-25 09:10:00,
2013-07-25 05:15:00,71.2,65.8,29.41,West,270,0.0,0.0,83,0.00,,,0.13,VWS V14.01,2013-07-25 09:15:00,
2013-07-25 05:20:00,71.2,65.5,29.41,West,270,0.0,0.0,82,0.00,,,0.13,VWS V14.01,2013-07-25 09:20:00,
2013-07-25 05:25:00,71.2,65.5,29.41,NW,315,0.0,0.0,82,0.00,,,0.13,VWS V14.01,2013-07-25 09:25:00,
2013-07-25 05:30:00,71.1,65.6,29.41,West,270,0.0,0.0,83,0.00,,,0.13,VWS V14.01,2013-07-25 09:30:00,
2013-07-25 05:36:00,71.2,65.8,29.41,West,270,0.0,0.0,83,0.00,,,0.13,VWS V14.01,2013-07-25 09:36:00,
2013-07-25 05:39:00,71.1,65.6,29.41,NNW,338,0.0,0.0,83,0.00,,,0.13,VWS V14.01,2013-07-25 09:39:00,
2013-07-25 05:44:00,70.9,65.5,29.41,West,270,0.0,0.0,83,0.00,,,0.13,VWS V14.01,2013-07-25 09:44:00,
2013-07-25 05:49:00,71.1,65.6,29.41,West,270,0.0,0.0,83,0.00,,,0.13,VWS V14.01,2013-07-25 09:49:00,
2013-07-25 05:55:00,70.7,65.3,29.41,West,270,0.0,0.0,83,0.00,,,0.13,VWS V14.01,2013-07-25 09:55:00,
2013-07-25 06:00:00,70.5,65.1,29.41,NW,315,0.0,0.0,83,0.00,,,0.13,VWS V14.01,2013-07-25 10:00:00,
2013-07-25 06:05:00,70.5,64.8,29.41,WNW,292,0.0,0.0,82,0.00,,,0.13,VWS V14.01,2013-07-25 10:05:00,
2013-07-25 06:10:00,70.3,64.6,29.41,North,0,0.0,0.0,82,0.00,,,0.13,VWS V14.01,2013-07-25 10:10:00,
2013-07-25 06:15:00,70.2,64.4,29.41,West,270,0.0,0.0,82,0.00,,,0.13,VWS V14.01,2013-07-25 10:15:00,
2013-07-25 06:20:00,70.2,64.4,29.41,NW,315,0.0,0.0,82,0.00,,,0.13,VWS V14.01,2013-07-25 10:20:00,
2013-07-25 06:25:00,70.0,63.9,29.44,WSW,248,0.0,0.0,81,0.00,,,0.13,VWS V14.01,2013-07-25 10:25:00,
2013-07-25 06:30:00,70.0,63.9,29.44,NNW,338,0.0,0.0,81,0.00,,,0.13,VWS V14.01,2013-07-25 10:30:00,
2013-07-25 06:35:00,69.8,63.7,29.44,WNW,292,0.0,0.0,81,0.00,,,0.13,VWS V14.01,2013-07-25 10:35:00,
2013-07-25 06:41:00,69.8,63.7,29.44,West,270,0.0,0.0,81,0.00,,,0.13,VWS V14.01,2013-07-25 10:41:00,
2013-07-25 06:46:00,69.8,64.1,29.44,West,270,0.0,0.0,82,0.00,,,0.13,VWS V14.01,2013-07-25 10:46:00,
2013-07-25 06:51:00,70.0,64.2,29.44,NW,315,0.0,0.0,82,0.00,,,0.13,VWS V14.01,2013-07-25 10:51:00,
2013-07-25 06:56:00,70.0,64.2,29.44,West,270,0.0,0.0,82,0.00,,,0.13,VWS V14.01,2013-07-25 10:56:00,
2013-07-25 07:01:00,69.8,64.1,29.44,West,270,0.0,0.0,82,0.00,,,0.13,VWS V14.01,2013-07-25 11:01:00,
2013-07-25 07:06:00,70.0,64.2,29.44,WNW,292,0.0,0.0,82,0.00,,,0.13,VWS V14.01,2013-07-25 11:06:00,
2013-07-25 07:11:00,70.0,64.6,29.44,West,270,0.0,0.0,83,0.00,,,0.13,VWS V14.01,2013-07-25 11:11:00,
2013-07-25 07:17:00,70.2,64.8,29.44,West,270,0.0,0.0,83,0.00,,,0.13,VWS V14.01,2013-07-25 11:17:00,
2013-07-25 07:22:00,70.0,64.6,29.44,West,270,0.0,0.0,83,0.00,,,0.13,VWS V14.01,2013-07-25 11:22:00,
2013-07-25 07:27:00,70.2,64.8,29.44,WNW,292,0.0,0.0,83,0.00,,,0.13,VWS V14.01,2013-07-25 11:27:00,
2013-07-25 07:33:00,70.0,64.6,29.44,NW,315,0.0,0.0,83,0.00,,,0.13,VWS V14.01,2013-07-25 11:33:00,
2013-07-25 07:38:00,70.2,64.8,29.44,West,270,0.0,0.0,83,0.00,,,0.13,VWS V14.01,2013-07-25 11:38:00,
2013-07-25 07:43:00,69.8,64.1,29.44,NW,315,0.0,0.0,82,0.00,,,0.13,VWS V14.01,2013-07-25 11:43:00,
2013-07-25 07:48:00,70.2,64.4,29.44,West,270,0.0,0.0,82,0.00,,,0.13,VWS V14.01,2013-07-25 11:48:00,
2013-07-25 07:53:00,70.0,64.2,29.44,West,270,0.0,0.0,82,0.00,,,0.13,VWS V14.01,2013-07-25 11:53:00,
2013-07-25 07:58:00,70.0,64.2,29.44,NW,315,0.0,0.0,82,0.00,,,0.13,VWS V14.01,2013-07-25 11:58:00,
2013-07-25 08:03:00,70.0,64.2,29.44,NW,315,0.0,0.0,82,0.00,,,0.13,VWS V14.01,2013-07-25 12:03:00,
2013-07-25 08:08:00,70.2,64.4,29.44,WNW,292,0.0,0.0,82,0.00,,,0.13,VWS V14.01,2013-07-25 12:08:00,
2013-07-25 08:13:00,70.2,64.4,29.47,West,270,0.0,0.0,82,0.00,,,0.13,VWS V14.01,2013-07-25 12:13:00,
2013-07-25 08:18:00,70.5,64.8,29.47,West,270,0.0,0.0,82,0.00,,,0.13,VWS V14.01,2013-07-25 12:18:00,
2013-07-25 08:23:00,70.5,64.4,29.47,NNW,338,0.0,0.0,81,0.00,,,0.13,VWS V14.01,2013-07-25 12:23:00,
2013-07-25 08:28:00,70.7,64.9,29.47,West,270,0.0,0.0,82,0.00,,,0.13,VWS V14.01,2013-07-25 12:28:00,
2013-07-25 08:34:00,70.7,64.6,29.47,NW,315,0.0,0.0,81,0.00,,,0.13,VWS V14.01,2013-07-25 12:34:00,
2013-07-25 08:39:00,70.7,64.6,29.47,West,270,0.0,0.0,81,0.00,,,0.13,VWS V14.01,2013-07-25 12:39:00,
2013-07-25 08:44:00,70.9,65.1,29.47,West,270,0.0,0.0,82,0.00,,,0.13,VWS V14.01,2013-07-25 12:44:00,
2013-07-25 08:49:00,70.9,64.8,29.47,NNW,338,0.0,0.0,81,0.00,,,0.13,VWS V14.01,2013-07-25 12:49:00,
2013-07-25 08:54:00,70.9,64.8,29.47,NW,315,0.0,0.0,81,0.00,,,0.13,VWS V14.01,2013-07-25 12:54:00,
2013-07-25 08:59:00,70.7,64.6,29.47,West,270,0.0,0.0,81,0.00,,,0.13,VWS V14.01,2013-07-25 12:59:00,
2013-07-25 09:05:00,71.1,64.9,29.47,WNW,292,0.0,0.0,81,0.00,,,0.13,VWS V14.01,2013-07-25 13:05:00,
2013-07-25 09:10:00,71.2,65.1,29.47,NNW,338,0.0,0.0,81,0.00,,,0.13,VWS V14.01,2013-07-25 13:10:00,
2013-07-25 09:15:00,70.9,64.8,29.47,NW,315,0.0,0.0,81,0.00,,,0.13,VWS V14.01,2013-07-25 13:15:00,
2013-07-25 09:16:00,71.1,64.9,29.47,NW,315,0.0,0.0,81,0.00,,,0.13,VWS V14.01,2013-07-25 13:16:00,
2013-07-25 09:21:00,71.1,64.9,29.47,WNW,292,0.0,0.0,81,0.00,,,0.13,VWS V14.01,2013-07-25 13:21:00,
2013-07-25 09:26:00,71.2,65.1,29.47,NW,315,0.0,0.0,81,0.00,,,0.13,VWS V14.01,2013-07-25 13:26:00,
2013-07-25 09:31:00,71.1,64.9,29.47,NW,315,0.0,0.0,81,0.00,,,0.13,VWS V14.01,2013-07-25 13:31:00,
2013-07-25 09:37:00,71.4,65.3,29.47,WNW,292,0.0,0.0,81,0.00,,,0.13,VWS V14.01,2013-07-25 13:37:00,
2013-07-25 09:42:00,71.6,65.1,29.47,WSW,248,0.0,0.0,80,0.00,,,0.13,VWS V14.01,2013-07-25 13:42:00,
2013-07-25 09:47:00,71.8,65.3,29.47,NW,315,0.0,0.0,80,0.00,,,0.13,VWS V14.01,2013-07-25 13:47:00,
2013-07-25 09:52:00,71.4,64.9,29.47,West,270,0.0,0.0,80,0.00,,,0.13,VWS V14.01,2013-07-25 13:52:00,
2013-07-25 09:57:00,71.6,65.1,29.50,WSW,248,0.0,0.0,80,0.00,,,0.13,VWS V14.01,2013-07-25 13:57:00,
2013-07-25 10:02:00,71.6,64.8,29.50,WSW,248,0.0,0.0,79,0.00,,,0.13,VWS V14.01,2013-07-25 14:02:00,
2013-07-25 10:07:00,71.8,65.3,29.50,WSW,248,0.0,0.0,80,0.00,,,0.13,VWS V14.01,2013-07-25 14:07:00,
2013-07-25 10:12:00,72.0,65.5,29.50,WNW,292,0.0,0.0,80,0.00,,,0.13,VWS V14.01,2013-07-25 14:12:00,
2013-07-25 10:18:00,72.3,65.8,29.50,North,0,0.0,0.0,80,0.00,,,0.13,VWS V14.01,2013-07-25 14:18:00,
2013-07-25 10:23:00,72.5,65.6,29.50,West,270,0.0,0.0,79,0.00,,,0.13,VWS V14.01,2013-07-25 14:23:00,
2013-07-25 10:28:00,72.9,66.0,29.50,WNW,292,0.0,0.0,79,0.00,,,0.13,VWS V14.01,2013-07-25 14:28:00,
2013-07-25 10:33:00,73.0,66.2,29.50,WSW,248,0.0,0.0,79,0.00,,,0.13,VWS V14.01,2013-07-25 14:33:00,
2013-07-25 10:34:00,73.2,66.3,29.50,NW,315,0.0,0.0,79,0.00,,,0.13,VWS V14.01,2013-07-25 14:34:00,
2013-07-25 10:39:00,73.2,66.0,29.50,SW,225,0.0,0.0,78,0.00,,,0.13,VWS V14.01,2013-07-25 14:39:00,
2013-07-25 10:44:00,73.2,66.0,29.50,West,270,0.0,0.0,78,0.00,,,0.13,VWS V14.01,2013-07-25 14:44:00,
2013-07-25 10:49:00,73.4,66.1,29.50,NNE,22,0.0,0.0,78,0.00,,,0.13,VWS V14.01,2013-07-25 14:49:00,
2013-07-25 10:54:00,73.6,65.9,29.50,NW,315,0.0,0.0,77,0.00,,,0.13,VWS V14.01,2013-07-25 14:54:00,
2013-07-25 10:59:00,73.6,65.9,29.50,NW,315,0.0,0.0,77,0.00,,,0.13,VWS V14.01,2013-07-25 14:59:00,
2013-07-25 11:04:00,73.6,65.9,29.50,NE,45,0.0,0.0,77,0.00,,,0.13,VWS V14.01,2013-07-25 15:04:00,
2013-07-25 11:10:00,73.8,66.1,29.50,NW,315,0.0,0.0,77,0.00,,,0.13,VWS V14.01,2013-07-25 15:10:00,
2013-07-25 11:15:00,73.9,65.9,29.50,NNW,338,0.0,0.0,76,0.00,,,0.13,VWS V14.01,2013-07-25 15:15:00,
2013-07-25 11:20:00,73.9,65.9,29.50,West,270,0.0,0.0,76,0.00,,,0.13,VWS V14.01,2013-07-25 15:20:00,
2013-07-25 11:25:00,74.1,66.1,29.50,NW,315,0.0,0.0,76,0.00,,,0.13,VWS V14.01,2013-07-25 15:25:00,
2013-07-25 11:30:00,74.3,66.2,29.50,East,90,0.0,0.0,76,0.00,,,0.13,VWS V14.01,2013-07-25 15:30:00,
2013-07-25 11:35:00,74.7,67.0,29.50,South,180,0.0,0.0,77,0.00,,,0.13,VWS V14.01,2013-07-25 15:35:00,
2013-07-25 11:40:00,74.7,66.6,29.50,NW,315,0.0,0.0,76,0.00,,,0.13,VWS V14.01,2013-07-25 15:40:00,
2013-07-25 11:45:00,74.8,66.8,29.53,WSW,248,0.0,0.0,76,0.00,,,0.13,VWS V14.01,2013-07-25 15:45:00,
2013-07-25 11:50:00,74.8,66.8,29.53,NNW,338,0.0,0.0,76,0.00,,,0.13,VWS V14.01,2013-07-25 15:50:00,
2013-07-25 11:56:00,75.4,66.9,29.53,SW,225,0.0,0.0,75,0.00,,,0.13,VWS V14.01,2013-07-25 15:56:00,
2013-07-25 12:01:00,75.4,66.5,29.53,NNW,338,0.0,0.0,74,0.00,,,0.13,VWS V14.01,2013-07-25 16:01:00,
2013-07-25 12:06:00,75.4,66.5,29.53,NNW,338,0.0,0.0,74,0.00,,,0.13,VWS V14.01,2013-07-25 16:06:00,
2013-07-25 12:11:00,76.1,67.6,29.53,NW,315,0.0,0.0,75,0.00,,,0.13,VWS V14.01,2013-07-25 16:11:00,
2013-07-25 12:16:00,76.1,67.6,29.53,East,90,0.0,0.0,75,0.00,,,0.13,VWS V14.01,2013-07-25 16:16:00,
2013-07-25 12:21:00,76.5,67.6,29.53,NW,315,0.0,0.0,74,0.00,,,0.13,VWS V14.01,2013-07-25 16:21:00,
2013-07-25 12:26:00,76.3,67.4,29.53,WSW,248,0.0,0.0,74,0.00,,,0.13,VWS V14.01,2013-07-25 16:26:00,
2013-07-25 12:31:00,76.5,67.6,29.53,NNW,338,0.0,0.0,74,0.00,,,0.13,VWS V14.01,2013-07-25 16:31:00,
2013-07-25 12:36:00,76.5,67.6,29.53,West,270,0.0,0.0,74,0.00,,,0.13,VWS V14.01,2013-07-25 16:36:00,
2013-07-25 12:41:00,76.5,67.2,29.50,West,270,0.0,0.0,73,0.00,,,0.13,VWS V14.01,2013-07-25 16:41:00,
2013-07-25 12:46:00,76.6,67.7,29.50,NW,315,0.0,0.0,74,0.00,,,0.13,VWS V14.01,2013-07-25 16:46:00,
2013-07-25 12:52:00,76.6,67.7,29.50,West,270,0.0,0.0,74,0.00,,,0.13,VWS V14.01,2013-07-25 16:52:00,
2013-07-25 12:57:00,76.8,67.9,29.50,WNW,292,0.0,0.0,74,0.00,,,0.13,VWS V14.01,2013-07-25 16:57:00,
2013-07-25 13:02:00,76.6,67.3,29.50,WSW,248,0.0,0.0,73,0.00,,,0.13,VWS V14.01,2013-07-25 17:02:00,
2013-07-25 13:07:00,76.6,67.3,29.50,West,270,0.0,0.0,73,0.00,,,0.13,VWS V14.01,2013-07-25 17:07:00,
2013-07-25 13:12:00,76.5,67.2,29.53,West,270,0.0,0.0,73,0.00,,,0.13,VWS V14.01,2013-07-25 17:12:00,
2013-07-25 13:17:00,77.0,67.7,29.53,SSW,202,0.0,0.0,73,0.00,,,0.13,VWS V14.01,2013-07-25 17:17:00,
2013-07-25 13:23:00,77.4,67.6,29.53,NW,315,0.0,0.0,72,0.00,,,0.13,VWS V14.01,2013-07-25 17:23:00,
2013-07-25 13:28:00,77.0,66.9,29.53,WNW,292,0.0,0.0,71,0.00,,,0.13,VWS V14.01,2013-07-25 17:28:00,
2013-07-25 13:33:00,77.2,67.1,29.53,SW,225,0.0,0.0,71,0.00,,,0.13,VWS V14.01,2013-07-25 17:33:00,
2013-07-25 13:38:00,77.2,67.1,29.53,SSE,158,0.0,0.0,71,0.00,,,0.13,VWS V14.01,2013-07-25 17:38:00,
2013-07-25 13:43:00,77.2,67.1,29.50,South,180,0.0,0.0,71,0.00,,,0.13,VWS V14.01,2013-07-25 17:43:00,
2013-07-25 13:48:00,77.4,67.6,29.50,West,270,0.0,0.0,72,0.00,,,0.13,VWS V14.01,2013-07-25 17:48:00,
2013-07-25 13:53:00,77.4,67.2,29.50,ESE,112,0.0,0.0,71,0.00,,,0.13,VWS V14.01,2013-07-25 17:53:00,
2013-07-25 13:58:00,77.7,67.6,29.50,NNW,338,0.0,0.0,71,0.00,,,0.13,VWS V14.01,2013-07-25 17:58:00,
2013-07-25 14:03:00,77.9,67.3,29.50,WNW,292,0.0,0.0,70,0.00,,,0.13,VWS V14.01,2013-07-25 18:03:00,
2013-07-25 14:09:00,77.9,67.3,29.50,SW,225,0.0,0.0,70,0.00,,,0.13,VWS V14.01,2013-07-25 18:09:00,
2013-07-25 14:14:00,77.7,66.8,29.50,West,270,0.0,0.0,69,0.00,,,0.13,VWS V14.01,2013-07-25 18:14:00,
2013-07-25 14:19:00,78.1,67.1,29.50,WSW,248,0.0,0.0,69,0.00,,,0.13,VWS V14.01,2013-07-25 18:19:00,
2013-07-25 14:24:00,78.4,67.4,29.50,NE,45,0.0,0.0,69,0.00,,,0.13,VWS V14.01,2013-07-25 18:24:00,
2013-07-25 14:29:00,78.4,67.8,29.50,NW,315,0.0,0.0,70,0.00,,,0.13,VWS V14.01,2013-07-25 18:29:00,
2013-07-25 14:34:00,78.3,67.3,29.50,NE,45,0.0,0.0,69,0.00,,,0.13,VWS V14.01,2013-07-25 18:34:00,
2013-07-25 14:39:00,78.3,67.3,29.50,North,0,0.0,0.0,69,0.00,,,0.13,VWS V14.01,2013-07-25 18:39:00,
2013-07-25 14:44:00,78.4,67.4,29.50,WSW,248,0.0,0.0,69,0.00,,,0.13,VWS V14.01,2013-07-25 18:44:00,
2013-07-25 14:49:00,78.6,67.6,29.50,West,270,0.0,0.0,69,0.00,,,0.13,VWS V14.01,2013-07-25 18:49:00,
2013-07-25 14:54:00,78.8,67.8,29.50,NNW,338,0.0,0.0,69,0.00,,,0.13,VWS V14.01,2013-07-25 18:54:00,
2013-07-25 15:00:00,78.6,67.6,29.50,WSW,248,0.0,0.0,69,0.00,,,0.13,VWS V14.01,2013-07-25 19:00:00,
2013-07-25 15:05:00,79.0,67.9,29.50,West,270,0.0,0.0,69,0.00,,,0.13,VWS V14.01,2013-07-25 19:05:00,
2013-07-25 15:10:00,79.2,68.1,29.50,South,180,0.0,0.0,69,0.00,,,0.13,VWS V14.01,2013-07-25 19:10:00,
2013-07-25 15:15:00,79.5,68.5,29.50,West,270,0.0,0.0,69,0.00,,,0.13,VWS V14.01,2013-07-25 19:15:00,
2013-07-25 15:20:00,79.2,67.7,29.50,East,90,0.0,0.0,68,0.00,,,0.13,VWS V14.01,2013-07-25 19:20:00,
2013-07-25 15:25:00,79.5,68.0,29.50,North,0,0.0,0.0,68,0.00,,,0.13,VWS V14.01,2013-07-25 19:25:00,
2013-07-25 15:30:00,79.5,68.0,29.50,WSW,248,0.0,0.0,68,0.00,,,0.13,VWS V14.01,2013-07-25 19:30:00,
2013-07-25 15:35:00,79.5,68.0,29.50,SW,225,0.0,0.0,68,0.00,,,0.13,VWS V14.01,2013-07-25 19:35:00,
2013-07-25 15:41:00,79.7,68.2,29.50,NW,315,0.0,0.0,68,0.00,,,0.13,VWS V14.01,2013-07-25 19:41:00,
2013-07-25 15:46:00,79.7,68.2,29.50,WSW,248,0.0,0.0,68,0.00,,,0.13,VWS V14.01,2013-07-25 19:46:00,
2013-07-25 15:51:00,79.9,68.4,29.50,West,270,0.0,0.0,68,0.00,,,0.13,VWS V14.01,2013-07-25 19:51:00,
2013-07-25 15:56:00,79.7,67.8,29.50,West,270,0.0,0.0,67,0.00,,,0.13,VWS V14.01,2013-07-25 19:56:00,
2013-07-25 16:01:00,79.7,68.2,29.50,WNW,292,0.0,0.0,68,0.00,,,0.13,VWS V14.01,2013-07-25 20:01:00,
2013-07-25 16:06:00,79.9,68.4,29.50,WSW,248,0.0,0.0,68,0.00,,,0.13,VWS V14.01,2013-07-25 20:06:00,
2013-07-25 16:11:00,79.7,67.8,29.53,West,270,0.0,0.0,67,0.00,,,0.13,VWS V14.01,2013-07-25 20:11:00,
2013-07-25 16:16:00,79.7,67.8,29.53,North,0,0.0,0.0,67,0.00,,,0.13,VWS V14.01,2013-07-25 20:16:00,
2013-07-25 16:21:00,79.5,67.6,29.53,West,270,0.0,0.0,67,0.00,,,0.13,VWS V14.01,2013-07-25 20:21:00,
2013-07-25 16:27:00,80.1,68.1,29.50,NW,315,0.0,0.0,67,0.00,,,0.13,VWS V14.01,2013-07-25 20:27:00,
2013-07-25 16:32:00,80.1,68.1,29.50,West,270,0.0,0.0,67,0.00,,,0.13,VWS V14.01,2013-07-25 20:32:00,
2013-07-25 16:37:00,80.1,68.1,29.50,SW,225,0.0,0.0,67,0.00,,,0.13,VWS V14.01,2013-07-25 20:37:00,
2013-07-25 16:42:00,80.1,68.1,29.53,NNW,338,0.0,0.0,67,0.00,,,0.13,VWS V14.01,2013-07-25 20:42:00,
2013-07-25 16:47:00,79.7,67.3,29.53,West,270,0.0,0.0,66,0.00,,,0.13,VWS V14.01,2013-07-25 20:47:00,
2013-07-25 16:52:00,80.2,67.9,29.53,WSW,248,0.0,0.0,66,0.00,,,0.13,VWS V14.01,2013-07-25 20:52:00,
2013-07-25 16:57:00,80.4,68.5,29.53,West,270,0.0,0.0,67,0.00,,,0.13,VWS V14.01,2013-07-25 20:57:00,
2013-07-25 17:02:00,80.4,68.5,29.53,SW,225,0.0,0.0,67,0.00,,,0.13,VWS V14.01,2013-07-25 21:02:00,
2013-07-25 17:07:00,80.4,68.5,29.53,North,0,0.0,0.0,67,0.00,,,0.13,VWS V14.01,2013-07-25 21:07:00,
2013-07-25 17:13:00,80.4,68.5,29.53,WSW,248,0.0,0.0,67,0.00,,,0.13,VWS V14.01,2013-07-25 21:13:00,
2013-07-25 17:18:00,80.6,68.2,29.53,WSW,248,0.0,0.0,66,0.00,,,0.13,VWS V14.01,2013-07-25 21:18:00,
2013-07-25 17:23:00,80.4,68.5,29.53,ENE,68,0.0,0.0,67,0.00,,,0.13,VWS V14.01,2013-07-25 21:23:00,
2013-07-25 17:28:00,80.1,67.7,29.53,WNW,292,0.0,0.0,66,0.00,,,0.13,VWS V14.01,2013-07-25 21:28:00,
2013-07-25 17:33:00,79.7,67.3,29.53,West,270,0.0,0.0,66,0.00,,,0.13,VWS V14.01,2013-07-25 21:33:00,
2013-07-25 17:38:00,79.7,67.3,29.53,NW,315,0.0,0.0,66,0.00,,,0.13,VWS V14.01,2013-07-25 21:38:00,
2013-07-25 17:43:00,79.7,67.8,29.53,SW,225,0.0,0.0,67,0.00,,,0.13,VWS V14.01,2013-07-25 21:43:00,
2013-07-25 17:48:00,79.3,67.4,29.53,WSW,248,0.0,0.0,67,0.00,,,0.13,VWS V14.01,2013-07-25 21:48:00,
2013-07-25 17:53:00,79.0,67.1,29.53,West,270,0.0,0.0,67,0.00,,,0.13,VWS V14.01,2013-07-25 21:53:00,
2013-07-25 17:58:00,79.0,67.1,29.53,NW,315,0.0,0.0,67,0.00,,,0.13,VWS V14.01,2013-07-25 21:58:00,
2013-07-25 18:03:00,79.0,67.1,29.53,WSW,248,0.0,0.0,67,0.00,,,0.13,VWS V14.01,2013-07-25 22:03:00,
2013-07-25 18:09:00,79.0,66.7,29.53,West,270,0.0,0.0,66,0.00,,,0.13,VWS V14.01,2013-07-25 22:09:00,
2013-07-25 18:14:00,78.8,66.5,29.53,WSW,248,0.0,0.0,66,0.00,,,0.13,VWS V14.01,2013-07-25 22:14:00,
2013-07-25 18:19:00,78.4,66.6,29.53,NW,315,0.0,0.0,67,0.00,,,0.13,VWS V14.01,2013-07-25 22:19:00,
2013-07-25 18:24:00,78.4,66.6,29.53,West,270,0.0,0.0,67,0.00,,,0.13,VWS V14.01,2013-07-25 22:24:00,
2013-07-25 18:29:00,78.3,66.4,29.53,WNW,292,0.0,0.0,67,0.00,,,0.13,VWS V14.01,2013-07-25 22:29:00,
2013-07-25 18:34:00,78.1,65.8,29.53,West,270,0.0,0.0,66,0.00,,,0.13,VWS V14.01,2013-07-25 22:34:00,
2013-07-25 18:39:00,78.1,66.2,29.53,NW,315,0.0,0.0,67,0.00,,,0.13,VWS V14.01,2013-07-25 22:39:00,
2013-07-25 18:44:00,77.9,66.1,29.53,WNW,292,0.0,0.0,67,0.00,,,0.13,VWS V14.01,2013-07-25 22:44:00,
2013-07-25 18:49:00,77.7,65.9,29.53,SW,225,0.0,0.0,67,0.00,,,0.13,VWS V14.01,2013-07-25 22:49:00,
2013-07-25 18:54:00,77.5,65.7,29.53,West,270,0.0,0.0,67,0.00,,,0.13,VWS V14.01,2013-07-25 22:54:00,
2013-07-25 18:59:00,77.5,65.7,29.53,NW,315,0.0,0.0,67,0.00,,,0.13,VWS V14.01,2013-07-25 22:59:00,
2013-07-25 19:04:00,77.4,65.6,29.53,NW,315,0.0,0.0,67,0.00,,,0.13,VWS V14.01,2013-07-25 23:04:00,
2013-07-25 19:09:00,77.2,65.4,29.53,NW,315,0.0,0.0,67,0.00,,,0.13,VWS V14.01,2013-07-25 23:09:00,
2013-07-25 19:15:00,77.2,65.8,29.53,NW,315,0.0,0.0,68,0.00,,,0.13,VWS V14.01,2013-07-25 23:15:00,
2013-07-25 19:20:00,77.0,65.6,29.53,West,270,0.0,0.0,68,0.00,,,0.13,VWS V14.01,2013-07-25 23:20:00,
2013-07-25 19:26:00,76.8,65.9,29.53,West,270,0.0,0.0,69,0.00,,,0.13,VWS V14.01,2013-07-25 23:26:00,
2013-07-25 19:31:00,76.8,65.9,29.53,West,270,0.0,0.0,69,0.00,,,0.13,VWS V14.01,2013-07-25 23:31:00,
2013-07-25 19:36:00,76.6,66.1,29.53,West,270,0.0,0.0,70,0.00,,,0.13,VWS V14.01,2013-07-25 23:36:00,
2013-07-25 19:41:00,76.5,66.0,29.53,West,270,0.0,0.0,70,0.00,,,0.13,VWS V14.01,2013-07-25 23:41:00,
2013-07-25 19:46:00,76.3,65.8,29.53,SW,225,0.0,0.0,70,0.00,,,0.13,VWS V14.01,2013-07-25 23:46:00,
2013-07-25 19:51:00,76.3,65.8,29.53,WNW,292,0.0,0.0,70,0.00,,,0.13,VWS V14.01,2013-07-25 23:51:00,
2013-07-25 19:56:00,75.9,65.4,29.53,West,270,0.0,0.0,70,0.00,,,0.13,VWS V14.01,2013-07-25 23:56:00,
2013-07-25 20:01:00,75.9,65.8,29.53,West,270,0.0,0.0,71,0.00,,,0.13,VWS V14.01,2013-07-26 00:01:00,
2013-07-25 20:07:00,75.6,65.9,29.53,West,270,0.0,0.0,72,0.00,,,0.13,VWS V14.01,2013-07-26 00:07:00,
2013-07-25 20:12:00,75.6,65.9,29.56,West,270,0.0,0.0,72,0.00,,,0.13,VWS V14.01,2013-07-26 00:12:00,
2013-07-25 20:17:00,75.6,65.9,29.56,West,270,0.0,0.0,72,0.00,,,0.13,VWS V14.01,2013-07-26 00:17:00,
2013-07-25 20:22:00,75.4,65.7,29.56,West,270,0.0,0.0,72,0.00,,,0.13,VWS V14.01,2013-07-26 00:22:00,
2013-07-25 20:27:00,75.2,65.6,29.56,West,270,0.0,0.0,72,0.00,,,0.13,VWS V14.01,2013-07-26 00:27:00,
2013-07-25 20:32:00,75.0,66.2,29.56,West,270,0.0,0.0,74,0.00,,,0.13,VWS V14.01,2013-07-26 00:32:00,
2013-07-25 20:37:00,74.8,66.0,29.56,West,270,0.0,0.0,74,0.00,,,0.13,VWS V14.01,2013-07-26 00:37:00,
2013-07-25 20:42:00,74.8,66.0,29.56,West,270,0.0,0.0,74,0.00,,,0.13,VWS V14.01,2013-07-26 00:42:00,
2013-07-25 20:47:00,74.5,65.7,29.56,West,270,0.0,0.0,74,0.00,,,0.13,VWS V14.01,2013-07-26 00:47:00,
2013-07-25 20:52:00,74.3,65.5,29.56,West,270,0.0,0.0,74,0.00,,,0.13,VWS V14.01,2013-07-26 00:52:00,
2013-07-25 20:57:00,74.1,65.7,29.56,West,270,0.0,0.0,75,0.00,,,0.13,VWS V14.01,2013-07-26 00:57:00,
2013-07-25 21:02:00,74.1,65.7,29.56,West,270,0.0,0.0,75,0.00,,,0.13,VWS V14.01,2013-07-26 01:02:00,
2013-07-25 21:08:00,73.9,65.9,29.56,SSW,202,0.0,0.0,76,0.00,,,0.13,VWS V14.01,2013-07-26 01:08:00,
2013-07-25 21:13:00,73.8,65.7,29.56,SSW,202,0.0,0.0,76,0.00,,,0.13,VWS V14.01,2013-07-26 01:13:00,
2013-07-25 21:18:00,73.8,65.7,29.56,SSW,202,0.0,0.0,76,0.00,,,0.13,VWS V14.01,2013-07-26 01:18:00,
2013-07-25 21:23:00,73.6,65.6,29.56,SSW,202,0.0,0.0,76,0.00,,,0.13,VWS V14.01,2013-07-26 01:23:00,
2013-07-25 21:28:00,73.6,65.9,29.56,SSW,202,0.0,0.0,77,0.00,,,0.13,VWS V14.01,2013-07-26 01:28:00,
2013-07-25 21:33:00,73.4,65.4,29.56,SSW,202,0.0,0.0,76,0.00,,,0.13,VWS V14.01,2013-07-26 01:33:00,
2013-07-25 21:39:00,73.2,65.6,29.56,SSW,202,0.0,0.0,77,0.00,,,0.13,VWS V14.01,2013-07-26 01:39:00,
2013-07-25 21:44:00,73.2,65.6,29.56,SSW,202,0.0,0.0,77,0.00,,,0.13,VWS V14.01,2013-07-26 01:44:00,
2013-07-25 21:49:00,73.0,65.4,29.56,SSW,202,0.0,0.0,77,0.00,,,0.13,VWS V14.01,2013-07-26 01:49:00,
2013-07-25 21:54:00,72.9,65.6,29.56,SSW,202,0.0,0.0,78,0.00,,,0.13,VWS V14.01,2013-07-26 01:54:00,
2013-07-25 21:59:00,72.9,65.6,29.56,SSW,202,0.0,0.0,78,0.00,,,0.13,VWS V14.01,2013-07-26 01:59:00,
2013-07-25 22:04:00,72.7,65.4,29.56,SSW,202,0.0,0.0,78,0.00,,,0.13,VWS V14.01,2013-07-26 02:04:00,
2013-07-25 22:09:00,72.5,65.3,29.56,SSW,202,0.0,0.0,78,0.00,,,0.13,VWS V14.01,2013-07-26 02:09:00,
2013-07-25 22:14:00,72.5,65.3,29.59,SSW,202,0.0,0.0,78,0.00,,,0.13,VWS V14.01,2013-07-26 02:14:00,
2013-07-25 22:19:00,72.0,65.1,29.59,SSW,202,0.0,0.0,79,0.00,,,0.13,VWS V14.01,2013-07-26 02:19:00,
2013-07-25 22:25:00,72.0,65.1,29.59,SSW,202,0.0,0.0,79,0.00,,,0.13,VWS V14.01,2013-07-26 02:25:00,
2013-07-25 22:30:00,72.0,64.7,29.59,SSW,202,0.0,0.0,78,0.00,,,0.13,VWS V14.01,2013-07-26 02:30:00,
2013-07-25 22:35:00,71.8,64.6,29.59,SSW,202,0.0,0.0,78,0.00,,,0.13,VWS V14.01,2013-07-26 02:35:00,
2013-07-25 22:40:00,71.8,64.9,29.59,SSW,202,0.0,0.0,79,0.00,,,0.13,VWS V14.01,2013-07-26 02:40:00,
2013-07-25 22:45:00,71.8,64.9,29.59,SSW,202,0.0,0.0,79,0.00,,,0.13,VWS V14.01,2013-07-26 02:45:00,
2013-07-25 22:50:00,71.6,64.8,29.59,SSW,202,0.0,0.0,79,0.00,,,0.13,VWS V14.01,2013-07-26 02:50:00,
2013-07-25 22:55:00,71.4,64.6,29.59,SSW,202,0.0,0.0,79,0.00,,,0.13,VWS V14.01,2013-07-26 02:55:00,
2013-07-25 23:00:00,71.4,64.6,29.59,SSW,202,0.0,0.0,79,0.00,,,0.13,VWS V14.01,2013-07-26 03:00:00,
2013-07-25 23:05:00,71.2,64.8,29.59,SSW,202,0.0,0.0,80,0.00,,,0.13,VWS V14.01,2013-07-26 03:05:00,
2013-07-25 23:10:00,71.2,64.8,29.59,SSW,202,0.0,0.0,80,0.00,,,0.13,VWS V14.01,2013-07-26 03:10:00,
2013-07-25 23:16:00,71.2,64.8,29.59,SSW,202,0.0,0.0,80,0.00,,,0.13,VWS V14.01,2013-07-26 03:16:00,
2013-07-25 23:21:00,71.1,64.6,29.59,SSW,202,0.0,0.0,80,0.00,,,0.13,VWS V14.01,2013-07-26 03:21:00,
2013-07-25 23:26:00,71.1,64.6,29.59,SSW,202,0.0,0.0,80,0.00,,,0.13,VWS V14.01,2013-07-26 03:26:00,
2013-07-25 23:31:00,70.9,64.4,29.59,SSW,202,0.0,0.0,80,0.00,,,0.13,VWS V14.01,2013-07-26 03:31:00,
2013-07-25 23:36:00,70.9,64.4,29.59,SSW,202,0.0,0.0,80,0.00,,,0.13,VWS V14.01,2013-07-26 03:36:00,
2013-07-25 23:41:00,70.7,64.2,29.59,SSW,202,0.0,0.0,80,0.00,,,0.13,VWS V14.01,2013-07-26 03:41:00,
2013-07-25 23:46:00,70.7,64.6,29.59,SSW,202,0.0,0.0,81,0.00,,,0.13,VWS V14.01,2013-07-26 03:46:00,
2013-07-25 23:51:00,70.5,64.4,29.59,SSW,202,0.0,0.0,81,0.00,,,0.13,VWS V14.01,2013-07-26 03:51:00,
2013-07-25 23:56:00,70.5,64.4,29.59,SSW,202,0.0,0.0,81,0.00,,,0.13,VWS V14.01,2013-07-26 03:56:00,